{"data":{"norad_id":56465,"intl_designator":"2023-064T","name":"STARLINK-6054","alt_names":[],"object_type":"PAYLOAD","status":"ACTIVE","operator":null,"country":"US","launch_date":"2023-05-10","launch_site_code":"AFWTR","launch_vehicle":null,"mission":null,"orbit_class":"UNKNOWN","rcs_meters":null,"size_class":null,"mass_kg":null,"dimensions":null,"purposes":["comms"],"wikipedia_slug":null,"has_3d_model":false,"image_url":null,"decayed_at":null,"tle_current":{"epoch":"2026-09-20T13:10:01.768512Z","epoch_age_seconds":107809,"freshness":"FRESH","line1":"1 56465U 23064T   26263.54863158  .00000025  00000+0  99003-5 0  9992","line2":"2 56465  69.9999 332.9909 0003582 268.5522  91.5227 14.98331318185429","mean_motion":14.98331318,"eccentricity":0.0003582,"inclination_deg":69.9999,"raan_deg":332.9909,"arg_perigee_deg":268.5522,"mean_anomaly_deg":91.5227,"bstar":9.9003e-6,"rev_number":18542,"period_min":96.10691458563,"perigee_km":569.56225750754,"apogee_km":574.54137277471,"semimajor_km":6950.1888151411,"source":"CELESTRAK","updated_at":"2026-09-21T09:00:33.444488Z"}}}